Volver al catálogo

DELTA 1 DEB

ActivoSSO
NORAD 7079·DEBRIS·🇺🇸 United States

Lanzado Nov 6, 1973 desde Vandenberg Space Force Base

Loading…

Próximos Pases (próximas 24 horas)

TLE

ActualizadoSource: Space-Track

Época: Sep 14, 2026, 08:56 UTC

1 07079U 73086BX  26257.37262685 -.00000068  00000-0 -19836-3 0  9994
2 07079 101.9261 220.3516 0039628  39.2876 115.1384 12.34180933374086

Sigue DELTA 1 DEB en tiempo real con AllMySat

Download on the App Store